This demonstration page uses our WeatherBlox Daily Observations layout. Learn more.

Left ArrowRight Arrow

Hourly Observations for December 27, 2021

Temp ( °F °C ) Dew Point ( °F °C ) Humidity (%) Winds ( mph kmh ) Pressure ( in mb ) Visibility ( mi km ) Precip ( " mm )
12:53 am 00:53 Clear -22 -30 -28 -33.3 73 73 WSW 8 13 30.18 1022 10 16 0.00 0.00
1:53 am 01:53 Clear -24 -31.1 -30 -34.4 73 73 WSW 9 15 30.18 1022 10 16 0.00 0.00
2:53 am 02:53 Clear -23 -30.6 -29 -33.9 73 73 SW 13 20 30.16 1021 10 16 0.00 0.00
3:53 am 03:53 Mostly Cloudy -24 -31.1 -30 -34.4 73 73 SW 7 11 30.15 1021 10 16 0.00 0.00
4:53 am 04:53 Mostly Cloudy -21 -29.4 -26 -32.2 77 77 SW 8 13 30.13 1020 10 16 0.00 0.00
5:53 am 05:53 Cloudy -21 -29.4 -27 -32.8 72 72 SW 6 9 30.10 1019 10 16 0.00 0.00
6:53 am 06:53 Cloudy with Light Snow -17 -27.2 -23 -30.6 73 73 SW 5 7 30.07 1018 4 6 0.00 0.00
7:53 am 07:53 Cloudy -18 -27.8 -23 -30.6 77 77 Calm 30.07 1018 10 16 0.00 0.00
8:53 am 08:53 Cloudy -16 -26.7 -22 -30 74 74 Calm 30.04 1017 10 16 0.00 0.00
9:53 am 09:53 Mostly Cloudy -14 -25.6 -21 -29.4 71 71 Calm 30.02 1017 9 14 0.00 0.00
10:53 am 10:53 Sunny -13 -25 -21 -29.4 67 67 Calm 30.00 1016 10 16 0.00 0.00
11:53 am 11:53 Sunny -13 -25 -22 -30 63 63 E 5 7 29.96 1015 10 16 0.00 0.00
12:53 pm 12:53 Sunny -12 -24.4 -21 -29.4 63 63 E 5 7 29.92 1013 10 16 0.00 0.00
1:53 pm 13:53 Sunny -13 -25 -22 -30 63 63 ESE 7 11 29.89 1012 10 16 0.00 0.00
2:53 pm 14:53 Sunny -12 -24.4 -22 -30 60 60 E 6 9 29.85 1011 10 16 0.00 0.00
3:53 pm 15:53 Sunny -14 -25.6 -23 -30.6 63 63 E 5 7 29.84 1011 10 16 0.00 0.00
4:53 pm 16:53 Partly Cloudy -17 -27.2 -24 -31.1 69 69 ENE 8 13 29.82 1010 10 16 0.00 0.00
5:13 pm 17:13 Hazy -18 -27.8 -24 -31.1 73 73 E 9 15 30.00 1016 3 5 0.00 0.00
5:53 pm 17:53 Clear -20 -28.9 -25 -31.7 77 77 ENE 7 11 29.82 1010 8 13 0.00 0.00
6:53 pm 18:53 Clear -20 -28.9 -26 -32.2 73 73 ENE 7 11 29.80 1009 10 16 0.00 0.00
7:53 pm 19:53 Clear -21 -29.4 -26 -32.2 77 77 ENE 8 13 29.80 1009 10 16 0.00 0.00
8:36 pm 20:36 Hazy -22 -30 -28 -33.3 73 73 ENE 6 9 30.01 1016 3 4 0.00 0.00
8:39 pm 20:39 Mostly Cloudy with Haze -22 -30 -28 -33.3 73 73 ENE 6 9 30.01 1016 2 2 0.00 0.00
8:53 pm 20:53 Mostly Cloudy with Haze -24 -31.1 -30 -34.4 73 73 E 6 9 29.81 1010 3 4 0.00 0.00
9:00 pm 21:00 Partly Cloudy -24 -31.1 -30 -34.4 73 73 E 7 11 30.03 1017 10 16 0.00 0.00
9:53 pm 21:53 Clear -24 -31.1 -29 -33.9 76 76 ENE 7 11 29.81 1009 10 16 0.00 0.00
10:01 pm 22:01 Hazy -24 -31.1 -31 -35 68 68 NE 6 9 30.03 1017 3 4 0.00 0.00
10:07 pm 22:07 Mostly Cloudy with Haze -24 -31.1 -30 -34.4 73 73 ENE 6 9 30.02 1017 2 2 0.00 0.00
10:17 pm 22:17 Hazy -25 -31.7 -30 -34.4 77 77 ENE 5 7 30.03 1017 2 3 0.00 0.00
10:28 pm 22:28 Partly Cloudy -26 -32 -29 -34 82 82 ENE 6 9 30.03 1017 7 11 0.00 0.00
10:53 pm 22:53 Clear -25 -31.7 -31 -35 72 72 E 5 7 29.80 1009 10 16 0.00 0.00
11:53 pm 23:53 Clear -26 -32.2 -32 -35.6 72 72 Calm 29.82 1010 10 16 0.00 0.00

Powered by AerisWeather